User: anonymous   Login
Location: Dayton
(39.7590°N, 84.1920°W)
Time: 05:17:36
(UTC-04:00)
Language:

Cosmos 1939 Rocket - Orbit

View from above orbital plane
View from above orbital plane
View from above satellite
View from above satellite

Ground track
Ground track

The orbit data is extracted from the following two-line orbital elements,

1 19046U 88032B   16211.51496868 -.00000531  00000-0 -35284-4 0  9996
2 19046  97.5772 260.8449 0039366 353.6693   6.4029 15.01961834524206
Epoch (UTC): 29 July 2016 12:21:33
Eccentricity: 0.0039366
inclination: 97.5772°
perigee height: 533 km
apogee height: 588 km
right ascension of ascending node: 260.8449°
argument of perigee: 353.6693°
revolutions per day: 15.01961834
mean anomaly at epoch: 6.4029°
orbit number at epoch: 52420

The dashed part of the orbit path shows where the satellite is in the earth's shadow,  

DLR